"startDT [UTC]","vpos","CH4 [ppm]","stdev(CH4) [ppm]","CO2 [ppm]","stdev(CO2) [ppm]","H2O_reported [%]","stdev(H2O_reported)","CavityPressure [torr]","CavityTemp [C]","OutletValve","CH4_dry [ppm]","CO2_dry [ppm]","DasTemp [C]","EtalonTemp [C]","WarmBoxTemp [C]","MPVPosition","T_ECpre [C]","T_EC1 [C]","T_EC2 [C]","p_inlet [hPa]","p_in [hPa]","p_out [hPa]","T_inlet [C]","RH_inlet [%]","dwpt_inlet [C]","T_vent [C]","RH_vent [%]","dwpt_vent [C]","flow_vent [l min-1]","flow_inlet [l min-1]","dwpt_sample [C]","T_room [C]"
2015-05-17 00:00:00,0.0,1.91491,0.00036,404.421,0.034,0.2402,0.0020,140.003,45.000,34153.97153,1.91946,405.598,32.238,45.068,45.000,0.00,0.09,-272.72,-272.78,-1,968,-1,21.1,7.2,-15.7,20.7,7.4,-15.7,5.73,1.96,-10.3,25.4
2015-05-17 00:01:00,0.0,1.91473,0.00034,404.425,0.030,0.2411,0.0025,140.004,45.000,34155.51491,1.91933,405.604,32.239,45.068,45.000,0.00,0.09,-272.72,-272.77,-1,968,-1,21.1,7.2,-15.7,20.7,7.5,-15.6,5.73,1.93,-10.4,25.4
2015-05-17 00:02:00,0.0,1.91495,0.00028,404.399,0.027,0.2402,0.0015,139.994,45.000,34149.54444,1.91949,405.576,32.247,45.068,45.000,0.00,0.09,-272.70,-272.77,-1,967,-1,21.1,7.2,-15.7,20.7,7.5,-15.6,5.73,1.94,-10.4,25.4
2015-05-17 00:03:00,0.0,1.91500,0.00039,404.424,0.029,0.2398,0.0018,139.998,45.000,34151.23936,1.91958,405.598,32.248,45.068,45.000,0.00,0.09,-272.73,-272.77,-1,966,-1,21.1,7.2,-15.8,20.7,7.4,-15.6,5.73,1.99,-10.3,25.4
2015-05-17 00:04:00,0.0,1.91494,0.00032,404.424,0.038,0.2391,0.0010,140.000,45.000,34154.74336,1.91944,405.592,32.248,45.068,45.000,0.00,0.09,-272.72,-272.78,-1,967,-1,21.0,7.2,-15.8,20.7,7.4,-15.7,5.73,2.03,-10.3,25.4
2015-05-17 00:05:00,0.0,1.91476,0.00023,404.449,0.032,0.2365,0.0016,139.999,45.000,34156.00369,1.91925,405.606,32.249,45.068,45.000,0.00,0.09,-272.71,-272.77,-1,967,-1,21.1,7.1,-15.9,20.7,7.4,-15.8,5.73,2.02,-10.3,25.4
2015-05-17 00:06:00,0.0,1.91470,0.00027,404.410,0.034,0.2343,0.0018,140.001,45.000,34158.67266,1.91914,405.560,32.251,45.068,45.000,0.00,0.09,-272.72,-272.79,-1,967,-1,21.1,7.0,-16.0,20.7,7.3,-15.8,5.73,1.98,-10.3,25.4
2015-05-17 00:07:00,0.0,1.91518,0.00045,404.450,0.036,0.2346,0.0017,139.998,45.000,34155.61798,1.91964,405.595,32.250,45.068,45.000,0.00,0.09,-272.72,-272.79,-1,967,-1,21.1,7.0,-16.1,20.7,7.3,-15.9,5.73,1.94,-10.3,25.4
2015-05-17 00:08:00,0.0,1.91532,0.00036,404.414,0.028,0.2330,0.0015,140.000,45.000,34155.87845,1.91974,405.555,32.252,45.068,45.000,0.00,0.09,-272.71,-272.78,-2,967,-1,21.1,7.0,-16.1,20.7,7.2,-16.0,5.73,1.94,-10.3,25.4
2015-05-17 00:09:00,0.0,1.91534,0.00036,404.449,0.024,0.2328,0.0018,140.001,45.000,34154.82828,1.91973,405.588,32.254,45.068,45.000,0.00,0.09,-272.74,-272.76,-2,968,-1,21.1,7.0,-16.1,20.7,7.2,-15.9,5.73,1.97,-10.3,25.4
2015-05-17 00:10:00,0.0,1.91527,0.00053,404.452,0.036,0.2315,0.0018,139.996,45.000,34153.78430,1.91962,405.584,32.254,45.068,45.000,0.00,0.09,-272.72,-272.78,-1,969,-1,21.1,7.0,-16.1,20.7,7.2,-16.0,5.73,2.01,-10.3,25.5
2015-05-17 00:11:00,0.0,1.91522,0.00037,404.465,0.031,0.2308,0.0019,140.002,45.000,34154.92875,1.91964,405.595,32.259,45.068,45.000,0.00,0.09,-272.70,-272.78,-1,968,-1,21.1,6.9,-16.3,20.7,7.2,-16.1,5.73,2.02,-10.3,25.4
2015-05-17 00:12:00,0.0,1.91520,0.00033,404.421,0.030,0.2314,0.0011,139.999,45.000,34154.82776,1.91959,405.553,32.269,45.068,45.000,0.00,0.09,-272.72,-272.79,-1,968,-1,21.1,6.9,-16.2,20.7,7.2,-16.1,5.73,2.00,-10.3,25.4
2015-05-17 00:13:00,0.0,1.91586,0.00035,404.457,0.027,0.2294,0.0014,140.002,45.000,34154.44601,1.92016,405.578,32.272,45.068,45.000,0.00,0.09,-272.71,-272.79,-1,967,-1,21.1,6.8,-16.3,20.7,7.1,-16.1,5.73,1.95,-10.3,25.4
2015-05-17 00:14:00,0.0,1.91579,0.00042,404.453,0.025,0.2281,0.0018,140.001,45.000,34152.43473,1.92010,405.570,32.293,45.068,45.000,0.00,0.09,-272.71,-272.77,-1,967,-1,21.1,6.8,-16.4,20.7,7.1,-16.2,5.73,1.93,-10.3,25.5
2015-05-17 00:15:00,0.0,1.91575,0.00034,404.478,0.032,0.2267,0.0011,140.002,45.000,34151.15324,1.92010,405.587,32.285,45.068,45.000,0.00,0.09,-272.71,-272.77,-1,967,-1,21.1,6.8,-16.4,20.7,7.1,-16.2,5.73,1.94,-10.3,25.5
2015-05-17 00:16:00,0.0,1.91588,0.00027,404.443,0.024,0.2273,0.0022,140.001,45.000,34151.43756,1.92017,405.554,32.286,45.068,45.000,0.00,0.09,-272.73,-272.79,-2,968,-1,21.1,6.8,-16.4,20.7,7.0,-16.3,5.73,1.98,-10.3,25.5
2015-05-17 00:17:00,0.0,1.91576,0.00033,404.473,0.030,0.2290,0.0015,139.997,45.000,34149.45302,1.92009,405.593,32.302,45.068,45.000,0.00,0.09,-272.72,-272.79,-2,968,-1,21.2,6.8,-16.4,20.7,7.1,-16.2,5.73,2.02,-10.3,25.5
2015-05-17 00:18:00,0.0,1.91568,0.00037,404.464,0.036,0.2276,0.0020,139.999,45.000,34151.02948,1.92001,405.577,32.315,45.068,45.000,0.00,0.09,-272.72,-272.77,-2,969,-1,21.2,6.8,-16.4,20.7,7.1,-16.2,5.73,2.02,-10.3,25.5
2015-05-17 00:19:00,0.0,1.91567,0.00038,404.498,0.028,0.2288,0.0016,139.996,45.000,34149.40051,1.91998,405.618,32.315,45.068,45.000,0.00,0.09,-272.72,-272.78,-1,968,-1,21.2,6.8,-16.3,20.7,7.1,-16.2,5.73,1.99,-10.3,25.5
2015-05-17 00:20:00,0.0,1.91593,0.00039,404.491,0.049,0.2295,0.0018,139.997,45.000,34149.24423,1.92027,405.615,32.325,45.068,45.000,0.00,0.09,-272.73,-272.79,-1,968,-1,21.2,6.8,-16.3,20.8,7.1,-16.1,5.73,1.94,-10.3,25.5
2015-05-17 00:21:00,0.0,1.91618,0.00029,404.460,0.030,0.2306,0.0021,139.998,45.000,34150.99304,1.92053,405.586,32.320,45.068,45.000,0.00,0.09,-272.71,-272.78,-1,967,-1,21.2,6.8,-16.3,20.8,7.1,-16.1,5.73,1.94,-10.3,25.4
2015-05-17 00:22:00,0.0,1.91609,0.00033,404.457,0.026,0.2320,0.0019,140.003,45.000,34152.74471,1.92054,405.593,32.313,45.068,45.000,0.00,0.09,-272.72,-272.77,-1,968,-1,21.2,6.9,-16.2,20.8,7.1,-16.1,5.73,1.96,-10.3,25.3
2015-05-17 00:23:00,0.0,1.91603,0.00038,404.438,0.032,0.2306,0.0017,139.998,45.000,34154.66967,1.92040,405.567,32.283,45.068,45.000,0.00,0.09,-272.73,-272.78,-2,969,-1,21.2,6.9,-16.2,20.8,7.1,-16.0,5.73,1.98,-10.3,25.2
2015-05-17 00:24:00,0.0,1.91565,0.00037,404.428,0.031,0.2346,0.0024,139.997,45.000,34157.62441,1.92009,405.574,32.241,45.068,45.000,0.00,0.09,-272.72,-272.77,-1,970,-1,21.2,6.9,-16.1,20.8,7.2,-15.9,5.73,1.99,-10.2,25.2
2015-05-17 00:25:00,0.0,1.91602,0.00037,404.417,0.025,0.2338,0.0012,140.001,45.000,34159.06114,1.92044,405.562,32.182,45.068,45.000,0.00,0.09,-272.72,-272.77,-2,969,-1,21.3,6.9,-16.1,20.9,7.2,-15.9,5.73,1.99,-10.2,25.2
2015-05-17 00:26:00,0.0,1.91641,0.00028,404.431,0.024,0.2329,0.0017,139.998,45.000,34160.67801,1.92081,405.571,32.133,45.069,45.001,0.00,0.09,-272.73,-272.78,-2,970,-1,21.3,6.9,-16.1,20.9,7.2,-15.9,5.73,1.99,-10.2,25.2
2015-05-17 00:27:00,0.0,1.91623,0.00043,404.468,0.033,0.2320,0.0019,139.999,45.000,34165.97970,1.92067,405.602,32.073,45.069,45.001,0.00,0.09,-272.72,-272.78,-2,971,-1,21.3,6.9,-16.2,20.9,7.1,-16.0,5.73,1.97,-10.2,25.3
2015-05-17 00:28:00,0.0,1.91588,0.00040,404.428,0.022,0.2304,0.0017,140.000,44.999,34171.79617,1.92027,405.556,31.984,45.069,45.001,0.00,0.09,-272.72,-272.77,-2,972,-1,21.3,6.8,-16.2,20.9,7.1,-16.0,5.73,1.96,-10.2,25.4
2015-05-17 00:29:00,0.0,1.91595,0.00040,404.425,0.021,0.2309,0.0014,139.998,44.999,34173.89508,1.92030,405.553,31.896,45.069,45.001,0.00,0.09,-272.72,-272.78,-2,973,-1,21.3,6.8,-16.2,20.9,7.1,-16.0,5.73,1.97,-10.2,25.5
2015-05-17 00:30:00,0.0,1.91564,0.00036,404.408,0.033,0.2317,0.0013,139.998,44.999,34177.74795,1.92007,405.543,31.822,45.069,45.001,0.00,0.09,-272.72,-272.78,-2,973,-1,21.3,6.8,-16.2,20.9,7.1,-16.0,5.73,1.96,-10.2,25.6
2015-05-17 00:31:00,0.0,1.91586,0.00041,404.421,0.044,0.2330,0.0016,139.999,44.999,34176.90377,1.92023,405.558,31.745,45.069,45.001,0.00,0.09,-272.72,-272.78,-3,974,-1,21.3,6.9,-16.1,20.9,7.1,-15.9,5.73,1.98,-10.2,25.6
2015-05-17 00:32:00,0.0,1.91597,0.00025,404.435,0.028,0.2333,0.0024,140.000,44.999,34174.57158,1.92039,405.578,31.679,45.069,45.001,0.00,0.09,-272.71,-272.77,-3,975,-1,21.3,6.9,-16.1,20.9,7.2,-15.9,5.73,1.99,-10.2,25.6
2015-05-17 00:33:00,0.0,1.91630,0.00030,404.449,0.034,0.2324,0.0017,140.001,44.999,34171.77711,1.92069,405.586,31.614,45.069,45.001,0.00,0.09,-272.72,-272.78,-3,975,-1,21.3,6.9,-16.1,20.9,7.1,-15.9,5.73,2.00,-10.2,25.5
2015-05-17 00:34:00,0.0,1.91598,0.00054,404.483,0.031,0.2332,0.0020,139.998,44.999,34170.08228,1.92043,405.623,31.563,45.069,45.001,0.00,0.09,-272.72,-272.78,-3,975,-1,21.3,6.9,-16.1,20.9,7.2,-15.9,5.73,2.00,-10.2,25.4
2015-05-17 00:35:00,0.0,1.91601,0.00031,404.464,0.041,0.2348,0.0017,140.000,44.999,34168.97021,1.92046,405.614,31.563,45.069,45.001,0.00,0.09,-272.72,-272.78,-3,975,-1,21.3,6.9,-16.1,20.9,7.2,-15.9,5.73,1.99,-10.2,25.4
2015-05-17 00:36:00,0.0,1.91579,0.00039,404.417,0.034,0.2356,0.0023,139.996,45.000,34167.88552,1.92028,405.568,31.567,45.069,45.000,0.00,0.09,-272.72,-272.78,-3,975,-1,21.3,6.9,-16.0,20.9,7.2,-15.8,5.73,1.97,-10.2,25.5
2015-05-17 00:37:00,0.0,1.91551,0.00048,404.437,0.031,0.2374,0.0019,140.003,45.000,34171.15692,1.92003,405.599,31.615,45.069,45.000,0.00,0.09,-272.72,-272.78,-3,974,-1,21.3,7.0,-15.9,20.9,7.3,-15.8,5.73,1.97,-10.2,25.5
2015-05-17 00:38:00,0.0,1.91559,0.00032,404.408,0.026,0.2394,0.0019,139.998,45.000,34167.73571,1.92008,405.579,31.661,45.069,45.000,0.00,0.09,-272.72,-272.77,-2,974,-2,21.3,7.1,-15.8,20.9,7.3,-15.7,5.73,1.97,-10.2,25.5
2015-05-17 00:39:00,0.0,1.91584,0.00032,404.426,0.026,0.2418,0.0019,139.996,45.000,34165.76505,1.92046,405.609,31.730,45.068,45.000,0.00,0.09,-272.71,-272.77,-3,973,-2,21.2,7.2,-15.7,20.9,7.4,-15.5,5.73,1.97,-10.2,25.5
2015-05-17 00:40:00,0.0,1.91535,0.00030,404.411,0.025,0.2445,0.0016,139.998,45.001,34167.73950,1.92000,405.609,31.782,45.068,45.000,0.00,0.09,-272.73,-272.78,-3,974,-1,21.2,7.2,-15.6,20.9,7.5,-15.4,5.73,1.98,-10.2,25.6
2015-05-17 00:41:00,0.0,1.91543,0.00023,404.413,0.019,0.2457,0.0021,140.004,45.001,34168.58690,1.92011,405.615,31.837,45.068,45.000,0.00,0.09,-272.72,-272.77,-2,972,-2,21.2,7.3,-15.5,20.9,7.5,-15.4,5.73,2.00,-10.2,25.6
2015-05-17 00:42:00,0.0,1.91544,0.00053,404.403,0.022,0.2476,0.0024,140.003,45.001,34168.09789,1.92017,405.615,31.878,45.068,44.999,0.00,0.09,-272.71,-272.77,-2,972,-1,21.2,7.4,-15.4,20.9,7.6,-15.3,5.73,2.02,-10.2,25.5
2015-05-17 00:43:00,0.0,1.91539,0.00047,404.372,0.024,0.2504,0.0015,139.997,45.000,34168.74849,1.92004,405.598,31.921,45.068,44.999,0.00,0.09,-272.72,-272.78,-3,973,-2,21.2,7.4,-15.3,20.9,7.6,-15.2,5.73,2.01,-10.2,25.5
2015-05-17 00:44:00,0.0,1.91515,0.00036,404.370,0.031,0.2501,0.0015,140.005,45.001,34172.61206,1.91993,405.594,31.951,45.068,44.999,0.00,0.09,-272.72,-272.79,-2,971,-2,21.2,7.4,-15.3,20.9,7.7,-15.1,5.73,2.00,-10.2,25.5
2015-05-17 00:45:00,0.0,1.91535,0.00035,404.415,0.031,0.2509,0.0019,139.999,45.001,34170.34968,1.92011,405.642,31.989,45.068,44.999,0.00,0.09,-272.71,-272.78,-2,971,-2,21.2,7.5,-15.2,20.9,7.7,-15.1,5.73,1.96,-10.2,25.5
2015-05-17 00:46:00,0.0,1.91535,0.00039,404.395,0.027,0.2512,0.0014,139.999,45.000,34171.32999,1.92014,405.625,32.010,45.068,44.999,0.00,0.09,-272.72,-272.78,-2,971,-2,21.2,7.5,-15.2,20.9,7.7,-15.1,5.73,1.95,-10.2,25.5
2015-05-17 00:47:00,0.0,1.91547,0.00045,404.384,0.030,0.2518,0.0018,140.001,45.000,34172.87629,1.92029,405.614,32.063,45.068,44.999,0.00,0.09,-272.72,-272.78,-2,971,-1,21.2,7.5,-15.2,20.9,7.7,-15.1,5.73,1.94,-10.2,25.5
2015-05-17 00:48:00,0.0,1.91550,0.00036,404.415,0.027,0.2473,0.0016,139.998,45.000,34173.23288,1.92015,405.628,32.064,45.068,45.000,0.00,0.09,-272.72,-272.78,-2,971,-2,21.2,7.4,-15.4,20.9,7.6,-15.2,5.73,1.96,-10.2,25.5
2015-05-17 00:49:00,0.0,1.91534,0.00054,404.393,0.024,0.2459,0.0017,140.003,45.000,34175.87967,1.92003,405.598,32.081,45.068,45.000,0.00,0.09,-272.72,-272.77,-2,970,-1,21.2,7.3,-15.5,20.9,7.6,-15.3,5.73,1.99,-10.2,25.5
2015-05-17 00:50:00,0.0,1.91558,0.00030,404.406,0.039,0.2433,0.0022,139.999,45.000,34173.03307,1.92017,405.595,32.111,45.068,45.000,0.00,0.09,-272.73,-272.78,-2,970,-1,21.2,7.2,-15.6,20.9,7.5,-15.4,5.73,2.01,-10.2,25.5
2015-05-17 00:51:00,0.0,1.91567,0.00037,404.409,0.030,0.2406,0.0019,140.000,45.000,34174.85856,1.92022,405.586,32.125,45.068,45.000,0.00,0.09,-272.72,-272.78,-2,971,-1,21.2,7.1,-15.8,20.9,7.4,-15.6,5.73,2.02,-10.2,25.5
2015-05-17 00:52:00,0.0,1.91593,0.00040,404.444,0.025,0.2404,0.0020,140.000,45.000,34174.62297,1.92046,405.621,32.138,45.068,45.000,0.00,0.09,-272.71,-272.77,-2,970,-1,21.2,7.1,-15.8,20.9,7.4,-15.6,5.73,2.01,-10.2,25.5
2015-05-17 00:53:00,0.0,1.91594,0.00024,404.417,0.024,0.2404,0.0017,139.998,45.000,34171.24650,1.92049,405.593,32.187,45.068,45.000,0.00,0.09,-272.72,-272.78,-2,969,-1,21.2,7.1,-15.9,20.9,7.3,-15.7,5.73,1.98,-10.2,25.5
2015-05-17 00:54:00,0.0,1.91628,0.00028,404.452,0.044,0.2384,0.0022,140.000,45.000,34170.64490,1.92083,405.620,32.208,45.068,45.000,0.00,0.09,-272.72,-272.78,-2,970,-1,21.2,7.1,-15.9,20.9,7.3,-15.7,5.73,1.95,-10.2,25.5
2015-05-17 00:55:00,0.0,1.91605,0.00047,404.415,0.017,0.2396,0.0017,140.000,45.000,34171.32626,1.92059,405.589,32.237,45.068,45.000,0.00,0.09,-272.72,-272.77,-2,970,-1,21.2,7.1,-15.9,20.9,7.3,-15.7,5.73,1.93,-10.2,25.5
2015-05-17 00:56:00,0.0,1.91619,0.00035,404.419,0.031,0.2369,0.0019,139.997,45.000,34169.59208,1.92068,405.576,32.250,45.068,45.000,0.00,0.09,-272.72,-272.77,-2,971,-1,21.2,7.0,-16.0,20.9,7.3,-15.8,5.73,1.94,-10.2,25.5
2015-05-17 00:57:00,0.0,1.91589,0.00040,404.431,0.034,0.2378,0.0015,140.001,45.000,34171.76183,1.92038,405.593,32.259,45.068,45.000,0.00,0.09,-272.72,-272.78,-2,970,-1,21.2,7.0,-16.0,20.9,7.3,-15.8,5.73,1.99,-10.2,25.5
2015-05-17 00:58:00,0.0,1.91620,0.00027,404.459,0.030,0.2364,0.0014,140.002,45.000,34167.52485,1.92068,405.617,32.293,45.068,45.000,0.00,0.09,-272.72,-272.78,-1,969,-1,21.2,7.0,-16.0,20.9,7.3,-15.8,5.73,2.02,-10.2,25.5
2015-05-17 00:59:00,0.0,1.91589,0.00032,404.416,0.026,0.2372,0.0017,140.000,45.000,34170.92186,1.92039,405.578,32.313,45.068,45.000,0.00,0.09,-272.72,-272.78,-1,969,-1,21.2,7.0,-15.9,20.9,7.3,-15.8,5.73,2.02,-10.2,25.5
2015-05-17 01:00:00,0.0,1.91608,0.00040,404.428,0.026,0.2384,0.0008,140.001,45.000,34168.51103,1.92062,405.592,32.315,45.068,45.000,0.00,0.09,-272.72,-272.78,-1,968,-1,21.2,7.1,-15.9,20.9,7.3,-15.7,5.73,1.98,-10.1,25.5
2015-05-17 01:01:00,0.0,1.91597,0.00029,404.446,0.029,0.2389,0.0016,140.001,45.000,34169.19863,1.92050,405.614,32.314,45.068,45.000,0.00,0.09,-272.72,-272.78,-2,968,-1,21.2,7.0,-15.9,20.9,7.3,-15.7,5.73,1.93,-10.2,25.6
2015-05-17 01:02:00,0.0,1.91629,0.00033,404.423,0.037,0.2367,0.0017,139.998,45.000,34166.53706,1.92079,405.584,32.321,45.068,45.000,0.00,0.09,-272.72,-272.78,-2,968,-1,21.2,7.0,-15.9,20.9,7.3,-15.8,5.73,1.94,-10.2,25.6
2015-05-17 01:03:00,0.0,1.91612,0.00035,404.448,0.030,0.2359,0.0017,139.995,45.000,34165.60203,1.92058,405.602,32.333,45.068,45.000,0.00,0.09,-272.72,-272.77,-2,969,-1,21.3,7.0,-16.0,20.9,7.2,-15.8,5.73,1.96,-10.2,25.6
2015-05-17 01:04:00,0.0,1.91631,0.00043,404.438,0.028,0.2390,0.0019,139.997,45.000,34163.12036,1.92083,405.607,32.347,45.068,45.000,0.00,0.09,-272.72,-272.78,-2,969,-1,21.3,7.0,-15.9,20.9,7.3,-15.7,5.73,2.01,-10.1,25.6
2015-05-17 01:05:00,0.0,1.91593,0.00046,404.409,0.025,0.2388,0.0020,139.998,45.000,34165.36790,1.92049,405.578,32.345,45.068,45.000,0.00,0.09,-272.72,-272.78,-2,970,-1,21.3,7.0,-15.9,20.9,7.3,-15.7,5.73,2.02,-10.2,25.6
2015-05-17 01:06:00,0.0,1.91604,0.00033,404.423,0.021,0.2398,0.0024,139.994,45.000,34165.60237,1.92054,405.595,32.326,45.068,45.000,0.00,0.09,-272.72,-272.77,-1,969,-1,21.3,7.1,-15.8,20.9,7.3,-15.6,5.73,2.01,-10.2,25.6
2015-05-17 01:07:00,0.0,1.91613,0.00046,404.431,0.046,0.2422,0.0017,140.000,45.000,34165.65564,1.92072,405.618,32.313,45.068,45.000,0.00,0.09,-272.72,-272.78,-2,969,-1,21.3,7.1,-15.7,20.9,7.4,-15.6,5.73,1.97,-10.1,25.6
2015-05-17 01:08:00,0.0,1.91622,0.00032,404.441,0.036,0.2383,0.0014,140.004,45.000,34166.42648,1.92075,405.604,32.315,45.068,45.000,0.00,0.09,-272.72,-272.78,-2,969,-1,21.3,7.1,-15.8,20.9,7.3,-15.6,5.73,1.95,-10.1,25.6
2015-05-17 01:09:00,0.0,1.91615,0.00037,404.461,0.037,0.2426,0.0012,140.000,45.000,34164.93789,1.92077,405.649,32.315,45.069,45.000,0.00,0.09,-272.71,-272.77,-2,970,-1,21.3,7.1,-15.7,20.9,7.4,-15.6,5.73,1.93,-10.1,25.6
2015-05-17 01:10:00,0.0,1.91617,0.00030,404.453,0.043,0.2414,0.0013,139.998,45.000,34163.90988,1.92076,405.636,32.313,45.069,45.000,0.00,0.09,-272.72,-272.78,-2,970,-1,21.3,7.1,-15.7,21.0,7.4,-15.5,5.73,1.95,-10.1,25.6
2015-05-17 01:11:00,0.0,1.91618,0.00047,404.440,0.023,0.2419,0.0022,139.999,45.000,34166.03974,1.92076,405.623,32.313,45.069,45.000,0.00,0.09,-272.72,-272.78,-1,969,-1,21.3,7.1,-15.7,20.9,7.4,-15.6,5.73,1.99,-10.1,25.6
2015-05-17 01:12:00,0.0,1.91618,0.00027,404.428,0.025,0.2399,0.0017,140.001,45.000,34168.17234,1.92076,405.602,32.329,45.069,45.000,0.00,0.09,-272.71,-272.78,-1,969,-1,21.3,7.1,-15.8,20.9,7.3,-15.6,5.73,2.03,-10.1,25.6
2015-05-17 01:13:00,0.0,1.91601,0.00029,404.407,0.046,0.2414,0.0032,140.002,45.000,34169.57986,1.92057,405.586,32.365,45.068,45.000,0.00,0.09,-272.72,-272.78,-1,968,-1,21.3,7.1,-15.8,20.9,7.4,-15.6,5.73,2.02,-10.1,25.6
2015-05-17 01:14:00,0.0,1.91607,0.00044,404.451,0.026,0.2416,0.0013,139.999,45.000,34167.24646,1.92066,405.633,32.374,45.068,45.000,0.00,0.09,-272.72,-272.78,-1,968,-1,21.3,7.1,-15.7,21.0,7.4,-15.5,5.73,1.96,-10.1,25.6
2015-05-17 01:15:00,0.0,1.91611,0.00044,404.425,0.034,0.2449,0.0020,139.995,45.000,34167.05193,1.92075,405.624,32.375,45.068,45.000,0.00,0.09,-272.72,-272.77,-2,968,-1,21.3,7.2,-15.6,21.0,7.4,-15.4,5.73,1.93,-10.1,25.6
2015-05-17 01:16:00,0.0,1.91616,0.00042,404.421,0.032,0.2436,0.0015,139.996,45.000,34166.24988,1.92081,405.613,32.384,45.068,45.000,0.00,0.09,-272.72,-272.77,-2,968,-1,21.3,7.2,-15.6,21.0,7.5,-15.4,5.73,1.94,-10.1,25.6
2015-05-17 01:17:00,0.0,1.91664,0.00030,404.420,0.028,0.2459,0.0015,139.998,45.000,34165.26491,1.92124,405.624,32.386,45.068,45.000,0.00,0.09,-272.73,-272.78,-2,968,-1,21.3,7.2,-15.5,21.0,7.5,-15.4,5.73,1.98,-10.1,25.7
2015-05-17 01:18:00,0.0,1.91603,0.00024,404.435,0.027,0.2426,0.0016,139.995,45.000,34166.31566,1.92068,405.623,32.409,45.068,45.000,0.00,0.09,-272.72,-272.78,-2,969,-1,21.3,7.1,-15.7,21.0,7.4,-15.5,5.73,2.02,-10.1,25.6
2015-05-17 01:19:00,0.0,1.91600,0.00040,404.431,0.036,0.2415,0.0021,139.998,45.000,34169.77762,1.92059,405.610,32.420,45.068,45.000,0.00,0.09,-272.72,-272.77,-2,970,-1,21.4,7.1,-15.7,21.0,7.4,-15.5,5.73,2.02,-10.1,25.6
2015-05-17 01:20:00,0.0,1.91600,0.00047,404.408,0.025,0.2431,0.0016,139.999,45.000,34168.61517,1.92061,405.599,32.385,45.068,45.000,0.00,0.09,-272.72,-272.78,-1,969,-1,21.4,7.1,-15.7,21.0,7.4,-15.5,5.73,1.99,-10.1,25.5
2015-05-17 01:21:00,0.0,1.91595,0.00037,404.420,0.026,0.2458,0.0013,140.000,45.000,34169.40568,1.92061,405.623,32.377,45.068,45.000,0.00,0.09,-272.72,-272.78,-1,969,-1,21.4,7.2,-15.5,21.0,7.5,-15.4,5.73,1.95,-10.1,25.4
2015-05-17 01:22:00,0.0,1.91594,0.00027,404.410,0.027,0.2430,0.0018,140.000,45.000,34173.74116,1.92058,405.603,32.366,45.068,45.000,0.00,0.09,-272.72,-272.76,-2,969,-1,21.4,7.1,-15.7,21.0,7.4,-15.5,5.73,1.94,-10.1,25.3
2015-05-17 01:23:00,0.0,1.91622,0.00036,404.419,0.053,0.2417,0.0014,139.998,45.000,34174.19916,1.92080,405.596,32.314,45.068,45.000,0.00,0.09,-272.72,-272.78,-2,970,-2,21.4,7.1,-15.7,21.0,7.3,-15.5,5.73,1.95,-10.1,25.4
2015-05-17 01:24:00,0.0,1.91608,0.00042,404.427,0.033,0.2403,0.0026,140.000,45.000,34177.71371,1.92061,405.606,32.276,45.069,45.001,0.00,0.09,-272.72,-272.78,-2,971,-2,21.5,7.0,-15.8,21.1,7.3,-15.6,5.73,1.95,-10.1,25.3
2015-05-17 01:25:00,0.0,1.91607,0.00035,404.423,0.020,0.2397,0.0018,140.005,45.000,34180.39290,1.92063,405.595,32.221,45.069,45.001,0.00,0.09,-272.71,-272.78,-2,971,-2,21.5,7.0,-15.8,21.1,7.3,-15.6,5.73,1.97,-10.1,25.3
2015-05-17 01:26:00,0.0,1.91612,0.00029,404.399,0.036,0.2389,0.0016,139.996,45.000,34183.93151,1.92068,405.570,32.165,45.069,45.001,0.00,0.09,-272.71,-272.78,-3,972,-2,21.5,7.0,-15.8,21.1,7.2,-15.7,5.73,1.98,-10.1,25.4
2015-05-17 01:27:00,0.0,1.91600,0.00036,404.438,0.031,0.2411,0.0015,140.001,44.999,34185.87384,1.92058,405.615,32.095,45.069,45.001,0.00,0.09,-272.72,-272.78,-3,973,-2,21.5,7.0,-15.8,21.1,7.3,-15.6,5.73,1.98,-10.0,25.4
2015-05-17 01:28:00,0.0,1.91547,0.00035,404.412,0.021,0.2435,0.0014,140.000,44.999,34189.70815,1.92008,405.603,31.999,45.069,45.000,0.00,0.09,-272.72,-272.78,-3,974,-2,21.5,7.1,-15.6,21.1,7.3,-15.5,5.73,1.99,-10.1,25.6
2015-05-17 01:29:00,0.0,1.91572,0.00029,404.380,0.025,0.2469,0.0016,140.005,44.999,34192.45711,1.92041,405.588,31.905,45.069,45.000,0.00,0.09,-272.72,-272.77,-3,974,-2,21.5,7.2,-15.5,21.1,7.4,-15.3,5.73,2.00,-10.1,25.7
2015-05-17 01:30:00,0.0,1.91568,0.00047,404.408,0.031,0.2450,0.0018,139.999,44.999,34190.64222,1.92030,405.608,31.828,45.069,45.001,0.00,0.09,-272.72,-272.78,-3,975,-2,21.5,7.1,-15.5,21.1,7.4,-15.4,5.73,2.00,-10.0,25.7
2015-05-17 01:31:00,0.0,1.91594,0.00025,404.412,0.034,0.2412,0.0019,140.002,44.999,34191.35345,1.92051,405.592,31.751,45.069,45.001,0.00,0.09,-272.73,-272.78,-3,976,-2,21.5,7.0,-15.7,21.1,7.3,-15.5,5.73,2.00,-10.1,25.7
2015-05-17 01:32:00,0.0,1.91588,0.00039,404.426,0.031,0.2414,0.0016,139.998,44.999,34188.85627,1.92047,405.606,31.696,45.069,45.001,0.00,0.09,-272.72,-272.78,-3,976,-2,21.5,7.0,-15.7,21.1,7.3,-15.6,5.73,1.99,-10.1,25.8
2015-05-17 01:33:00,0.0,1.91629,0.00044,404.420,0.024,0.2414,0.0023,139.999,44.999,34186.70683,1.92086,405.603,31.646,45.069,45.001,0.00,0.09,-272.72,-272.77,-3,976,-2,21.5,7.0,-15.7,21.1,7.3,-15.5,5.73,1.98,-10.0,25.7
2015-05-17 01:34:00,0.0,1.91616,0.00033,404.423,0.022,0.2407,0.0017,139.998,44.999,34185.36061,1.92073,405.599,31.614,45.069,45.001,0.00,0.09,-272.72,-272.78,-3,977,-2,21.5,7.0,-15.8,21.1,7.3,-15.6,5.73,1.97,-10.0,25.6
2015-05-17 01:35:00,0.0,1.91623,0.00033,404.417,0.024,0.2417,0.0016,140.004,44.999,34186.59684,1.92079,405.600,31.580,45.069,45.000,0.00,0.09,-272.72,-272.77,-3,976,-2,21.5,7.0,-15.7,21.1,7.3,-15.6,5.73,1.97,-10.0,25.6
2015-05-17 01:36:00,0.0,1.91631,0.00031,404.424,0.018,0.2426,0.0024,140.001,44.999,34184.19779,1.92096,405.610,31.565,45.069,45.000,0.00,0.09,-272.71,-272.77,-3,976,-2,21.5,7.1,-15.7,21.1,7.3,-15.5,5.73,1.97,-10.0,25.6
2015-05-17 01:37:00,0.0,1.91612,0.00029,404.395,0.032,0.2468,0.0017,139.999,45.000,34182.39683,1.92078,405.605,31.566,45.069,45.000,0.00,0.09,-272.72,-272.77,-4,976,-2,21.5,7.2,-15.5,21.1,7.4,-15.3,5.73,1.97,-10.0,25.6
2015-05-17 01:38:00,0.0,1.91592,0.00041,404.389,0.029,0.2485,0.0022,140.001,45.000,34180.80267,1.92067,405.604,31.616,45.069,45.000,0.00,0.09,-272.72,-272.78,-3,975,-2,21.5,7.2,-15.4,21.1,7.5,-15.3,5.73,1.98,-10.0,25.5
2015-05-17 01:39:00,0.0,1.91600,0.00030,404.395,0.032,0.2466,0.0016,139.998,45.000,34180.45030,1.92067,405.602,31.663,45.069,45.000,0.00,0.09,-272.71,-272.78,-3,975,-2,21.5,7.2,-15.5,21.1,7.5,-15.3,5.73,1.99,-10.0,25.6
2015-05-17 01:40:00,0.0,1.91623,0.00042,404.427,0.041,0.2457,0.0025,140.001,45.000,34179.44182,1.92089,405.631,31.712,45.068,45.000,0.00,0.09,-272.72,-272.78,-3,974,-2,21.4,7.2,-15.5,21.1,7.4,-15.4,5.73,1.98,-10.0,25.6
2015-05-17 01:41:00,0.0,1.91612,0.00045,404.406,0.010,0.2482,0.0020,140.002,45.001,34180.63208,1.92083,405.620,31.772,45.068,45.000,0.00,0.09,-272.72,-272.78,-3,975,-2,21.4,7.2,-15.4,21.1,7.5,-15.3,5.73,1.97,-10.0,25.7
2015-05-17 01:42:00,0.0,1.91602,0.00032,404.414,0.031,0.2480,0.0010,140.001,45.001,34181.94234,1.92073,405.628,31.836,45.068,45.000,0.00,0.09,-272.71,-272.78,-3,974,-2,21.4,7.3,-15.4,21.1,7.5,-15.2,5.73,1.95,-10.0,25.7
2015-05-17 01:43:00,0.0,1.91604,0.00031,404.404,0.036,0.2475,0.0013,140.002,45.001,34180.85769,1.92074,405.616,31.901,45.068,44.999,0.00,0.09,-272.72,-272.77,-3,973,-2,21.4,7.2,-15.4,21.1,7.5,-15.2,5.73,1.95,-10.0,25.7
2015-05-17 01:44:00,0.0,1.91612,0.00026,404.417,0.019,0.2460,0.0013,139.993,45.001,34181.03987,1.92078,405.620,31.958,45.068,44.999,0.00,0.09,-272.73,-272.78,-3,974,-2,21.4,7.2,-15.5,21.1,7.4,-15.3,5.73,1.94,-10.0,25.6
2015-05-17 01:45:00,0.0,1.91610,0.00047,404.412,0.031,0.2447,0.0016,140.001,45.001,34183.33010,1.92069,405.610,32.008,45.068,44.999,0.00,0.09,-272.72,-272.79,-2,973,-2,21.4,7.1,-15.6,21.1,7.4,-15.4,5.73,1.95,-10.0,25.6
2015-05-17 01:46:00,0.0,1.91628,0.00033,404.413,0.036,0.2434,0.0015,140.004,45.001,34186.69941,1.92096,405.604,32.056,45.068,44.999,0.00,0.09,-272.72,-272.77,-2,972,-2,21.4,7.1,-15.6,21.1,7.4,-15.4,5.73,1.99,-10.0,25.6